Theta_e
350 351 352 354 355 355 356 355 345 335 337 349 340 346 353 357 358 357 355 351 350 348 346 347 348 349 351 354 356 355 356 356 356 357 357 357 358 360
339 341 343 347 346 349 353 355 355 345 335 345 349 349 348 351 356 357 358 355 349 345 345 344 345 347 348 350 351 351 351 352 353 353 353 354 354 356
337 337 337 342 336 338 346 347 346 350 339 346 347 353 352 351 353 357 356 358 356 346 346 345 343 344 345 346 347 347 348 348 349 350 351 351 352 353
334 334 333 334 338 341 334 344 344 345 342 339 348 347 354 356 355 356 359 357 355 351 343 344 342 340 340 341 341 341 342 342 343 345 347 348 349 350
332 331 331 331 332 333 336 334 334 338 344 343 341 347 348 353 355 355 357 348 351 350 341 339 340 339 337 336 336 335 335 335 336 337 339 341 344 346
329 330 331 329 327 327 329 330 331 331 336 342 341 342 348 350 348 344 347 352 348 352 350 346 344 341 338 335 335 334 330 329 329 330 332 333 336 339
328 327 327 326 325 323 323 323 327 328 329 329 331 339 339 341 345 347 342 347 348 351 349 348 348 351 350 337 342 338 332 329 327 327 327 327 329 331
322 322 324 323 323 322 322 324 326 327 329 328 328 330 337 341 344 343 341 343 335 352 352 343 347 344 348 354 341 336 332 330 328 327 325 325 326 327
324 320 319 319 320 320 322 325 327 328 330 329 327 331 332 336 338 336 340 339 337 346 351 343 345 349 355 348 334 331 332 330 328 327 326 325 324 323
323 322 320 320 316 317 320 321 322 326 327 326 328 330 331 334 334 335 337 339 340 336 343 338 344 339 348 345 333 331 334 332 328 325 323 322 320 319
321 321 317 317 314 313 319 318 319 321 323 325 326 326 327 330 331 332 329 327 327 335 341 337 339 336 341 344 344 335 335 329 325 323 323 320 317 316
319 319 314 314 313 313 315 313 313 316 320 322 323 325 327 328 329 337 330 327 328 328 336 340 342 337 331 339 345 344 345 326 322 321 321 320 316 327
313 314 315 312 311 310 311 315 312 314 318 318 318 320 322 322 324 326 332 327 324 328 333 337 338 341 339 337 339 344 352 351 341 332 316 317 313 327
314 314 315 310 309 310 311 310 312 313 314 313 312 313 314 316 318 321 326 327 327 331 337 340 336 337 338 337 337 342 345 353 345 353 348 329 314 315
315 313 313 311 310 313 313 313 314 315 314 312 312 312 312 313 321 321 323 325 328 331 334 338 334 340 339 333 337 338 340 342 358 345 344 348 340 333
315 316 317 315 313 316 314 315 314 314 312 312 311 313 314 313 311 312 313 315 315 317 326 331 334 327 329 334 340 340 340 340 345 349 346 349 347 347
308 315 316 315 314 313 313 313 313 312 311 311 311 311 311 311 310 311 311 311 311 310 313 319 326 328 333 331 327 340 340 340 341 346 349 343 346 351
309 313 313 313 312 312 312 312 313 313 312 311 310 310 309 309 309 309 310 309 308 309 310 314 316 315 318 326 330 332 337 342 341 345 349 343 344 345
310 313 312 314 312 312 312 311 311 313 318 311 310 310 309 309 308 307 308 307 308 309 309 312 311 308 305 306 319 321 323 330 338 337 342 344 336 337
312 314 313 314 313 315 313 312 312 312 312 314 312 310 309 308 307 306 306 307 306 306 308 309 311 310 306 306 308 315 314 325 329 331 337 336 336 333
316 314 315 314 313 313 314 313 313 312 311 312 311 309 308 307 306 306 306 303 304 306 306 308 309 313 311 315 311 312 316 315 318 329 331 330 328 330
316 315 316 314 317 316 314 313 312 310 310 310 309 308 307 306 305 305 305 305 305 306 306 308 314 315 310 306 306 307 312 314 318 317 316 321 325 322
317 317 316 315 315 314 315 314 310 310 310 308 307 306 304 303 305 305 305 305 305 305 306 306 308 313 312 309 307 308 307 311 311 315 320 319 316 316
Wind_Speed
9 8 6 6 7 7 6 5 5 4 7 5 3 9 15 9 12 7 9 18 17 18 17 16 16 17 17 18 18 18 19 19 21 21 21 21 22 22
5 6 7 5 6 6 6 6 5 6 5 6 5 6 11 9 10 9 10 7 11 10 12 15 17 17 17 17 16 16 17 18 19 19 19 20 20 20
11 11 11 6 5 7 7 5 7 6 6 8 8 6 7 8 5 10 6 8 4 15 19 14 15 16 16 16 17 17 17 17 19 20 20 19 20 20
7 9 10 11 12 8 8 7 6 9 6 10 9 8 10 9 8 9 7 5 6 7 14 12 13 15 15 16 16 17 17 18 18 19 21 21 20 19
8 9 8 10 11 12 12 11 10 8 8 9 10 7 10 5 7 8 7 3 6 17 8 12 14 16 16 16 16 16 16 16 17 19 19 19 20 20
9 7 9 10 11 11 11 11 10 11 11 7 8 9 7 10 9 7 5 7 10 14 21 14 10 14 15 15 16 16 17 17 17 18 18 19 20 20
11 12 12 12 14 13 9 10 12 10 10 11 10 7 7 8 8 7 6 8 8 9 9 11 11 10 10 12 13 17 16 16 17 18 18 18 18 20
11 10 10 13 13 17 16 16 13 11 11 10 10 11 11 8 8 6 8 9 8 11 9 10 9 10 10 6 6 14 17 18 19 20 19 19 19 19
9 9 9 9 14 14 14 15 13 13 10 10 11 12 11 11 11 11 10 9 11 13 6 10 8 10 8 8 6 5 13 19 20 21 21 20 20 18
8 9 11 12 14 15 11 12 13 13 11 10 11 13 13 13 13 12 13 13 9 8 13 11 9 8 7 8 9 7 30 32 25 21 20 20 19 19
8 8 10 11 14 18 13 14 13 11 11 11 12 12 12 13 7 9 11 12 12 5 5 9 11 5 12 9 12 28 34 32 21 20 20 19 17 14
5 7 17 9 8 12 12 13 13 13 13 12 10 10 9 11 13 7 7 9 11 12 10 10 10 7 6 7 11 10 11 18 20 19 19 19 18 9
7 7 8 9 10 8 11 10 10 12 12 11 11 9 10 12 10 10 9 7 8 11 12 9 9 9 7 7 9 6 4 8 11 12 16 19 19 17
7 8 7 6 13 11 10 7 12 14 9 10 10 10 10 11 10 11 12 11 10 13 13 13 8 9 9 11 8 10 8 4 2 9 12 15 19 21
7 10 15 16 17 15 15 15 12 8 10 10 10 9 9 9 10 9 10 12 12 13 10 12 9 11 9 11 8 11 8 9 5 3 10 11 11 10
10 11 14 9 10 9 8 6 9 10 11 10 11 10 10 9 10 10 11 10 12 11 13 14 12 8 8 9 11 11 11 9 7 6 9 15 12 12
11 11 10 6 7 6 7 7 8 8 9 11 11 11 11 10 10 10 8 10 11 11 13 12 13 15 9 12 10 10 11 11 11 10 10 8 8 8
8 10 9 10 10 9 10 12 11 10 10 10 11 11 11 11 11 11 10 8 9 10 11 12 12 12 12 8 4 10 11 10 11 11 11 10 9 7
10 9 6 6 6 5 6 7 10 9 13 11 10 10 10 11 12 12 11 11 10 8 9 8 7 8 10 10 8 3 11 12 11 11 8 9 10 7
12 10 8 5 6 4 6 7 10 10 12 13 11 11 10 11 12 12 12 12 12 11 9 8 9 8 7 7 9 12 10 10 10 9 10 6 6 16
11 9 8 9 7 7 6 6 7 9 11 14 12 11 11 12 12 12 13 13 10 12 11 8 7 11 7 8 6 8 9 12 13 12 10 7 6 6
3 4 6 6 6 6 8 7 7 10 11 12 12 12 11 12 13 13 13 13 12 12 12 10 5 4 3 5 7 10 8 9 11 16 17 14 5 3
5 6 7 6 8 9 6 5 10 11 11 12 11 12 13 13 13 12 12 12 13 12 12 12 6 2 7 7 8 9 9 10 9 10 11 10 17 15
Wind_Direction
338 330 324 318 315 309 286 245 248 275 285 273 271 333 305 272 353 253 186 200 183 192 200 207 211 217 222 224 221 219 216 215 212 212 216 216 219 218
331 338 339 341 311 321 308 293 268 253 265 284 227 220 251 287 315 338 310 152 199 199 208 207 211 213 216 218 220 217 214 212 211 210 210 212 213 215
343 349 334 318 299 309 304 295 296 286 274 277 298 267 245 277 273 277 305 312 321 206 199 203 209 209 211 215 216 217 218 216 211 207 208 210 212 212
352 342 353 346 328 306 301 303 297 302 291 288 292 298 252 238 252 272 266 266 298 256 215 198 210 210 209 211 214 215 216 215 213 210 209 208 211 211
350 353 5 358 3 358 343 326 316 325 295 289 288 285 291 258 225 227 232 232 296 283 253 243 213 210 206 205 213 217 215 215 214 210 207 204 207 208
352 339 39 36 20 356 342 341 335 320 302 281 284 291 285 294 303 286 205 194 217 229 226 225 216 226 222 211 206 212 216 212 214 213 210 209 205 207
9 7 14 23 11 356 340 335 318 317 319 304 295 274 280 298 295 310 298 286 272 225 236 242 240 226 218 221 229 223 218 215 214 214 212 212 214 210
22 10 344 20 352 346 339 322 301 297 309 314 309 321 316 322 306 306 309 292 272 222 222 238 239 234 242 225 183 225 219 216 215 217 210 212 212 215
58 18 1 8 5 346 342 328 330 321 321 347 346 325 326 333 328 314 306 302 303 308 257 245 239 228 220 220 214 270 267 241 224 219 216 212 211 214
31 31 13 17 10 352 341 355 343 329 360 339 330 322 324 323 305 298 291 283 253 273 304 284 266 260 239 203 200 190 266 235 215 209 213 209 206 209
62 57 40 20 360 350 356 357 353 355 339 334 306 297 315 321 333 310 285 285 293 257 228 265 288 280 285 270 196 210 218 212 206 200 207 213 206 203
20 132 75 23 345 332 349 3 352 350 341 345 339 335 342 326 319 327 347 329 306 295 282 288 284 295 298 305 274 178 188 234 199 200 203 208 194 191
3 358 15 352 317 298 295 346 330 317 324 346 345 349 350 347 343 342 325 328 314 306 314 312 300 290 272 264 277 301 246 213 216 209 209 206 190 198
356 344 331 317 290 284 279 301 281 292 351 340 351 354 351 343 345 344 337 321 315 300 302 297 278 290 291 282 259 272 270 282 80 249 203 204 199 201
344 318 281 270 267 278 241 257 282 328 344 331 344 340 341 340 321 342 337 331 320 308 313 322 314 288 270 267 272 268 282 273 248 244 278 273 204 195
352 315 297 281 275 280 339 351 344 357 336 343 333 330 336 337 336 350 335 340 333 331 328 322 321 335 318 282 265 258 261 253 266 226 223 259 189 196
331 306 306 344 346 353 349 351 344 352 347 340 328 335 334 334 331 341 331 337 336 335 331 329 340 311 298 290 302 266 252 255 258 245 253 259 266 224
297 307 319 348 2 358 340 339 346 347 353 320 337 329 331 329 332 321 327 328 334 334 337 331 343 342 340 316 252 297 275 256 263 251 246 248 242 254
255 285 319 311 317 310 324 333 322 338 319 332 325 323 324 324 326 324 325 322 320 333 332 327 348 357 337 326 310 346 338 308 289 289 276 249 241 260
240 265 274 312 300 304 327 304 327 331 325 320 315 322 329 325 321 321 320 321 323 321 318 332 333 345 320 310 303 297 275 281 291 302 284 253 308 283
302 350 357 335 307 302 355 332 329 323 321 306 311 328 332 324 321 318 314 311 306 305 310 309 308 305 296 298 301 313 315 332 298 292 299 299 280 314
359 349 338 312 269 295 333 329 301 321 307 299 324 331 328 327 317 314 311 314 309 309 308 311 291 292 296 302 313 311 318 325 319 292 250 242 250 286
316 306 326 318 303 336 337 277 319 308 314 326 334 336 331 315 308 309 308 307 309 309 304 302 306 285 286 295 298 307 308 320 329 322 309 288 241 249